Find Rassvet-3 No. 7

NORAD ID: 68366 Int'l Des: 2026-061 Owner: B1440 Country: RU Constellation: Rassvet operational
LEOCIRCULARPOLAR

当前视图

正在加载3D地球...

About Rassvet-3 No. 7

Rassvet-3 No. 7 (NORAD 68366) is a Rassvet constellation satellite launched Mar 23, 2026 by B1440 of RU. It operates in LEO, CIRCULAR, POLAR orbit with a mass of 370.00 kg.

关于 Rassvet-3 No. 7

正在加载描述...

即将过境

Passes for default location (London). Set your location on the main map for personalized predictions.

高度历史

Loading altitude history...

两行轨道根数

1 68366U 26061G 26175.24125939 .00002039 00000-0 95055-4 0 9992
2 68366 82.2940 6.7363 0007673 121.4641 238.7344 15.19321364 14521
Epoch: Jun 24, 2026 • Age: 22 hours

当前状态

高度 527.8 km
速度 7.59 km/s
星下点 -39.24°S, 30°E
发射日期 Mar 23, 2026
运行时间 0.2 years
类型 other

技术详情

分类 Payload
质量 370.00 kg
干质量 370.00 kg
总质量 370.00 kg
长度 4.00 m
直径 1.00 m
跨度 10.00 m
形状 Box+1 pan
制造商 B1440
平台类型 Rassvet-2
阶段状态 In Orbit
所有者/国家 B1440/RU

Most Searched